(275515) = 1996 TM = 1993 UM1

Discovered at Prescott on 1996-10-03 by P. G. Comba.

Orbit

Orbit type: Main Belt

Note: WebGL enabled browser required.

epoch2023-02-25.0
epoch JD2460000.5
perihelion date2022-08-06.20845
perihelion JD2459797.70845
argument of perihelion (°)14.87882
ascending node (°)14.09902
inclination (°)8.71837
eccentricity0.0657514
perihelion distance (AU)2.0306232
Tisserand w.r.t. Jupiter3.7
ΔV w.r.t. Earth (km/sec)9.2
semimajor axis (AU)2.1735362
mean anomaly (°)62.37397
mean daily motion (°/day)0.30757680
aphelion distance (AU)2.316
period (years)3.2
P-vector [x]0.87552991
P-vector [y]0.42637150
P-vector [z]0.22727673
Q-vector [x]-0.48175095
Q-vector [y]0.73441018
Q-vector [z]0.47807710
absolute magnitude17.73
phase slope0.15
uncertainty0
referenceMPO 730196
observations used194
oppositions10
arc length (days)10688
first opposition used1993
last opposition used2023
residual rms (arc-secs)0.86
perturbers coarse indicatorM-v
perturbers precise indicator003Ek
first observation date used1993-10-16.0
last observation date used2023-01-20.0
computer nameMPCLINUX
JD of orbit computation2456819.433467
perihelion JD uncertainty (days)1.8317E-04
argument of perihelion uncertainty (°)5.9150E-05
ascending node uncertainty (°)2.5998E-05
inclination uncertainty (°)1.3194E-05
eccentricity uncertainty 1.1809E-07
perihelion distance uncertainty (AU)2.5838E-07
Minimum Orbit Intersection Distances (in AU)
for orbit epoch: 2460000.5, reference: E2023-B58
Mercury1.6857
Venus1.30931
Earth1.03354
Mars0.57347
Jupiter2.91113
Saturn6.98026
Uranus16.1617
Neptune27.8232

Observations

198 total observations over interval: 1993 10 16.36375 – 2023 01 20.270034
These data are available for download (format description).

Date (UT) J2000 RA J2000 Dec Magn Location Ref
1993 10 16.36375 02 43 12.56 +21 48 51.0 20.0 V 691 – Steward Observatory, Kitt Peak-Spacewatch MPC 22768
1993 10 16.37268 02 43 11.99 +21 48 52.3   691 – Steward Observatory, Kitt Peak-Spacewatch MPC 22768
1993 10 16.38145 02 43 11.33 +21 48 53.7   691 – Steward Observatory, Kitt Peak-Spacewatch MPC 22768
1993 10 21.37734 02 37 45.68 +22 00 21.6   691 – Steward Observatory, Kitt Peak-Spacewatch MPC 22768
1993 10 21.41330 02 37 43.08 +22 00 25.2   691 – Steward Observatory, Kitt Peak-Spacewatch MPC 22768
1993 10 21.43271 02 37 41.71 +22 00 26.7 19.3 V 691 – Steward Observatory, Kitt Peak-Spacewatch MPC 22768
1996 10 03.24318 23 57 11.52 -03 38 11.2 18.8 R 684 – Prescott MPC 28011
1996 10 03.25197 23 57 10.96 -03 38 09.4   684 – Prescott MPC 28011
1996 10 04.24075 23 56 07.09 -03 38 07.7   684 – Prescott MPC 28011
1996 10 04.27081 23 56 05.03 -03 38 07.7   684 – Prescott MPC 28011
1996 10 06.22902 23 54 01.51 -03 37 41.4 19.5 R 684 – Prescott MPC 28011
1996 10 06.23737 23 54 00.87 -03 37 40.8   684 – Prescott MPC 28011
2009 09 23.37586 02 36 20.62 +17 44 21.1 20.9 V G96 – Mt. Lemmon Survey MPS 296814
2009 09 23.38286 02 36 20.41 +17 44 23.3 20.9 V G96 – Mt. Lemmon Survey MPS 296814
2009 09 23.38991 02 36 20.26 +17 44 24.3 21.6 V G96 – Mt. Lemmon Survey MPS 296814
2009 09 23.39714 02 36 20.01 +17 44 26.7 20.9 V G96 – Mt. Lemmon Survey MPS 296814
2009 10 14.33190 02 20 25.44 +18 55 59.2 19.9 V 703 – Catalina Sky Survey MPS 298222
2009 10 14.33254 02 20 25.22 +18 55 58.2 19.3 V 703 – Catalina Sky Survey MPS 298222
2009 10 14.33994 02 20 24.75 +18 55 59.7 19.2 V 703 – Catalina Sky Survey MPS 298222
2009 10 14.34059 02 20 24.79 +18 55 58.9 19.1 V 703 – Catalina Sky Survey MPS 298222
2009 10 14.34799 02 20 24.18 +18 56 02.2 20.1 V 703 – Catalina Sky Survey MPS 298222
2009 10 14.34860 02 20 24.28 +18 56 01.9 19.8 V 703 – Catalina Sky Survey MPS 298222
2009 10 14.35596 02 20 23.74 +18 56 03.0 19.5 V 703 – Catalina Sky Survey MPS 298222
2009 10 14.35656 02 20 23.67 +18 56 01.8 20.1 V 703 – Catalina Sky Survey MPS 298222
2009 10 22.31660 02 11 11.65 +19 05 22.3 19.4 V 703 – Catalina Sky Survey MPS 300525
2009 10 22.32505 02 11 11.04 +19 05 21.4 19.4 V 703 – Catalina Sky Survey MPS 300525
2009 10 22.33355 02 11 10.35 +19 05 22.9 19.4 V 703 – Catalina Sky Survey MPS 300525
2009 10 22.34200 02 11 09.74 +19 05 21.7 19.2 V 703 – Catalina Sky Survey MPS 300525
2009 10 23.23417 02 10 05.10 +19 05 49.7 20.1   704 – Lincoln Laboratory ETS, New Mexico MPS 300525
2009 10 23.24753 02 10 03.94 +19 05 48.9 20.0   704 – Lincoln Laboratory ETS, New Mexico MPS 300525
2009 10 23.26101 02 10 02.98 +19 05 50.2 20.1   704 – Lincoln Laboratory ETS, New Mexico MPS 300525
2009 10 23.27438 02 10 01.90 +19 05 50.8 20.1   704 – Lincoln Laboratory ETS, New Mexico MPS 300525
2011 03 26.24972 13 20 09.44 -08 34 20.8 20.8 V 691 – Steward Observatory, Kitt Peak-Spacewatch MPS 375460
2011 03 26.26743 13 20 08.34 -08 34 19.8 20.5 V 691 – Steward Observatory, Kitt Peak-Spacewatch MPS 375460
2011 03 26.28513 13 20 07.16 -08 34 18.1 20.6 V 691 – Steward Observatory, Kitt Peak-Spacewatch MPS 375460
2011 04 03.45406 13 11 13.691 -08 19 03.92 20.5 w F51 – Pan-STARRS 1, Haleakala MPS 377070
2011 04 03.46991 13 11 12.568 -08 19 01.93 20.5 w F51 – Pan-STARRS 1, Haleakala MPS 377070
2011 04 03.48377 13 11 11.589 -08 19 00.16 20.5 w F51 – Pan-STARRS 1, Haleakala MPS 377070
2011 04 22.15032 12 50 24.40 -07 36 00.4 20.5 V 691 – Steward Observatory, Kitt Peak-Spacewatch MPS 379989
2011 04 22.19295 12 50 21.77 -07 35 55.2 20.9 V 691 – Steward Observatory, Kitt Peak-Spacewatch MPS 379989
2011 04 22.23562 12 50 19.08 -07 35 49.5 20.7 V 691 – Steward Observatory, Kitt Peak-Spacewatch MPS 379989
2011 04 28.33431 12 44 31.499 -07 24 17.94 21.3 w F51 – Pan-STARRS 1, Haleakala MPS 379989
2011 04 28.33563 12 44 31.440 -07 24 17.81 21.6 w F51 – Pan-STARRS 1, Haleakala MPS 379989
2011 04 28.34841 12 44 30.721 -07 24 16.65 21.3 w F51 – Pan-STARRS 1, Haleakala MPS 379989
2011 04 28.34972 12 44 30.656 -07 24 16.51 21.7 w F51 – Pan-STARRS 1, Haleakala MPS 379989
2011 04 28.36264 12 44 29.934 -07 24 15.44 21.6 w F51 – Pan-STARRS 1, Haleakala MPS 379989
2011 04 28.36396 12 44 29.873 -07 24 15.10 21.4 w F51 – Pan-STARRS 1, Haleakala MPS 379989
2011 04 28.37672 12 44 29.177 -07 24 14.58 22.0 w F51 – Pan-STARRS 1, Haleakala MPS 379989
2011 04 28.37804 12 44 29.087 -07 24 13.84 21.5 w F51 – Pan-STARRS 1, Haleakala MPS 379989
2011 05 01.15322 12 42 08.54 -07 20 03.6 20.9 V 691 – Steward Observatory, Kitt Peak-Spacewatch MPS 381153
2011 05 01.18060 12 42 07.14 -07 20 01.6 21.1 V 691 – Steward Observatory, Kitt Peak-Spacewatch MPS 381153
2011 05 01.20452 12 42 05.93 -07 19 59.7 21.1 V 691 – Steward Observatory, Kitt Peak-Spacewatch MPS 381153
2011 05 08.14838 12 37 10.13 -07 13 12.5 20.7 V 691 – Steward Observatory, Kitt Peak-Spacewatch MPS 382097
2011 05 08.16959 12 37 09.33 -07 13 11.2 20.4 V 691 – Steward Observatory, Kitt Peak-Spacewatch MPS 382097
2011 05 08.19079 12 37 08.46 -07 13 11.3 20.7 V 691 – Steward Observatory, Kitt Peak-Spacewatch MPS 382097
2012 09 17.28067 23 52 32.52 -06 56 39.4 19.7 V G96 – Mt. Lemmon Survey MPS 433210
2012 09 17.29059 23 52 31.76 -06 56 40.4 19.6 V G96 – Mt. Lemmon Survey MPS 433210
2012 09 17.30060 23 52 31.04 -06 56 40.7 19.5 V G96 – Mt. Lemmon Survey MPS 433210
2012 09 17.31042 23 52 30.36 -06 56 41.7 19.6 V G96 – Mt. Lemmon Survey MPS 433210
2012 10 06.352845 23 31 55.858 -06 57 38.15 19.6 i F51 – Pan-STARRS 1, Haleakala MPS 437696
2012 10 06.364967 23 31 55.151 -06 57 37.30 19.6 i F51 – Pan-STARRS 1, Haleakala MPS 437696
2012 10 22.21874 23 21 03.56 -06 15 07.8 20.5 V G96 – Mt. Lemmon Survey MPS 439335
2012 10 22.22438 23 21 03.34 -06 15 06.2 20.5 V G96 – Mt. Lemmon Survey MPS 439335
2012 10 22.23005 23 21 03.24 -06 15 04.5 20.4 V G96 – Mt. Lemmon Survey MPS 439335
2012 10 22.23577 23 21 03.06 -06 15 03.7 20.4 V G96 – Mt. Lemmon Survey MPS 439335
2012 11 17.12744 23 21 56.41 -03 40 01.2 21.0 V G96 – Mt. Lemmon Survey MPS 444745
2012 11 17.13734 23 21 56.66 -03 39 56.4 21.1 V G96 – Mt. Lemmon Survey MPS 444745
2012 11 17.14725 23 21 56.91 -03 39 51.8 21.1 V G96 – Mt. Lemmon Survey MPS 444745
2012 11 17.15720 23 21 57.16 -03 39 46.9 20.8 V G96 – Mt. Lemmon Survey MPS 444745
2014 02 20.33327 11 53 36.04 +08 38 14.0 20.6 V 691 – Steward Observatory, Kitt Peak-Spacewatch MPS 502227
2014 02 20.35102 11 53 35.11 +08 38 18.0 20.8 V 691 – Steward Observatory, Kitt Peak-Spacewatch MPS 502227
2014 02 20.36878 11 53 34.15 +08 38 21.1 20.9 V 691 – Steward Observatory, Kitt Peak-Spacewatch MPS 502227
2014 03 05.26312 11 40 33.18 +09 22 35.0   691 – Steward Observatory, Kitt Peak-Spacewatch MPS 505200
2014 03 05.28084 11 40 31.96 +09 22 38.3   691 – Steward Observatory, Kitt Peak-Spacewatch MPS 505200
2014 03 05.29856 11 40 30.72 +09 22 42.0   691 – Steward Observatory, Kitt Peak-Spacewatch MPS 505200
2014 03 10.27518 11 34 50.80 +09 38 38.7 19.9 V G96 – Mt. Lemmon Survey MPS 506198
2014 03 10.28296 11 34 50.21 +09 38 39.8 20.5 V G96 – Mt. Lemmon Survey MPS 506198
2014 03 10.29075 11 34 49.65 +09 38 41.5 19.8 V G96 – Mt. Lemmon Survey MPS 506198
2014 03 10.29856 11 34 49.07 +09 38 42.5 19.6 V G96 – Mt. Lemmon Survey MPS 506198
2014 03 12.34566 11 32 27.402 +09 44 43.91 19.9 i F51 – Pan-STARRS 1, Haleakala MPS 506198
2014 03 12.36014 11 32 26.367 +09 44 46.43 20.0 i F51 – Pan-STARRS 1, Haleakala MPS 506198
2014 03 12.37208 11 32 25.509 +09 44 48.58 19.9 i F51 – Pan-STARRS 1, Haleakala MPS 506198
2014 03 12.38514 11 32 24.573 +09 44 50.84 20.0 i F51 – Pan-STARRS 1, Haleakala MPS 506198
2014 03 20.47795 11 23 10.760 +10 03 59.25 20.3 r F51 – Pan-STARRS 1, Haleakala MPS 508304
2014 03 20.48927 11 23 09.988 +10 04 00.48 20.3 r F51 – Pan-STARRS 1, Haleakala MPS 508304
2014 03 20.51258 11 23 08.371 +10 04 03.15 20.1 r F51 – Pan-STARRS 1, Haleakala MPS 508304
2014 03 25.29767 11 18 00.361 +10 11 08.63 20.9 w F51 – Pan-STARRS 1, Haleakala MPS 508304
2014 03 25.31175 11 17 59.470 +10 11 09.63 20.8 w F51 – Pan-STARRS 1, Haleakala MPS 508304
2014 03 25.32402 11 17 58.664 +10 11 10.50 20.8 w F51 – Pan-STARRS 1, Haleakala MPS 508304
